| time (UTC) | temp C | wind direction | speed KPH | gust KPH | rain 1hr cm | rain 24hr cm | rain mn cm | humidity % | barometer mb |
| 20260504212328 | 16 | 244 | 14.5 | 24.1 | 0.00 | 0.08 | 0.08 | 48 | 1005.5 |
| 20260504211827 | 16 | 251 | 11.3 | 19.3 | 0.00 | 0.08 | 0.08 | 47 | 1005.6 |
| 20260504211328 | 16 | 288 | 12.9 | 17.7 | 0.00 | 0.08 | 0.08 | 48 | 1005.4 |
| 20260504210825 | 16 | 266 | 9.7 | 25.7 | 0.00 | 0.08 | 0.08 | 49 | 1005.5 |
| 20260504210322 | 16 | 251 | 8.0 | 20.9 | 0.00 | 0.08 | 0.08 | 49 | 1005.5 |
| 20260504205820 | 16 | 240 | 8.0 | 17.7 | 0.00 | 0.08 | 0.08 | 48 | 1005.4 |
| 20260504205317 | 15 | 226 | 4.8 | 27.4 | 0.00 | 0.08 | 0.08 | 48 | 1005.6 |
| 20260504204815 | 15 | 306 | 16.1 | 25.7 | 0.00 | 0.08 | 0.08 | 50 | 1005.6 |
| 20260504204313 | 15 | 315 | 9.7 | 24.1 | 0.00 | 0.08 | 0.08 | 52 | 1005.5 |
| 20260504203813 | 15 | 308 | 25.7 | 30.6 | 0.00 | 0.08 | 0.08 | 51 | 1005.9 |
| 20260504203309 | 15 | 238 | 11.3 | 20.9 | 0.00 | 0.08 | 0.08 | 51 | 1005.5 |
| 20260504202804 | 15 | 265 | 14.5 | 20.9 | 0.00 | 0.08 | 0.08 | 51 | 1005.5 |
| 20260504202304 | 15 | 282 | 20.9 | 25.7 | 0.00 | 0.08 | 0.08 | 52 | 1005.5 |
| 20260504201758 | 15 | 306 | 19.3 | 25.7 | 0.00 | 0.08 | 0.08 | 53 | 1005.4 |
| 20260504201256 | 15 | 286 | 14.5 | 22.5 | 0.00 | 0.08 | 0.08 | 53 | 1005.5 |
| 20260504200754 | 15 | 285 | 12.9 | 22.5 | 0.00 | 0.08 | 0.08 | 54 | 1005.4 |
| 20260504200249 | 15 | 316 | 11.3 | 24.1 | 0.00 | 0.08 | 0.08 | 53 | 1005.3 |
| 20260504195746 | 15 | 245 | 9.7 | 30.6 | 0.00 | 0.08 | 0.08 | 54 | 1005.5 |
| 20260504195241 | 15 | 254 | 16.1 | 30.6 | 0.00 | 0.08 | 0.08 | 52 | 1005.6 |
| 20260504194739 | 15 | 251 | 11.3 | 19.3 | 0.00 | 0.08 | 0.08 | 53 | 1005.7 |
| 20260504194235 | 15 | 231 | 11.3 | 19.3 | 0.00 | 0.08 | 0.08 | 54 | 1005.6 |
| 20260504193731 | 15 | 254 | 16.1 | 29.0 | 0.00 | 0.08 | 0.08 | 53 | 1005.7 |
| 20260504193229 | 15 | 284 | 17.7 | 19.3 | 0.00 | 0.08 | 0.08 | 54 | 1005.5 |
| 20260504192727 | 14 | 246 | 20.9 | 25.7 | 0.00 | 0.08 | 0.08 | 55 | 1005.7 |
| 20260504192225 | 14 | 280 | 14.5 | 35.4 | 0.00 | 0.08 | 0.08 | 56 | 1005.6 |
| 20260504191723 | 13 | 254 | 11.3 | 24.1 | 0.00 | 0.08 | 0.08 | 55 | 1005.5 |
| 20260504191220 | 14 | 316 | 22.5 | 32.2 | 0.00 | 0.08 | 0.08 | 55 | 1005.7 |
| 20260504190715 | 13 | 240 | 22.5 | 32.2 | 0.00 | 0.08 | 0.08 | 56 | 1005.5 |
| 20260504190212 | 13 | 280 | 17.7 | 29.0 | 0.00 | 0.08 | 0.08 | 56 | 1005.4 |
| 20260504185708 | 13 | 264 | 9.7 | 24.1 | 0.00 | 0.08 | 0.08 | 57 | 1005.7 |
| 20260504185205 | 13 | 249 | 6.4 | 32.2 | 0.00 | 0.08 | 0.08 | 58 | 1005.5 |
| 20260504184701 | 13 | 237 | 14.5 | 32.2 | 0.00 | 0.08 | 0.08 | 58 | 1005.7 |
| 20260504184156 | 13 | 305 | 25.7 | 30.6 | 0.00 | 0.08 | 0.08 | 58 | 1005.8 |
| 20260504183653 | 13 | 298 | 29.0 | 35.4 | 0.00 | 0.08 | 0.08 | 58 | 1005.6 |
| 20260504183150 | 13 | 268 | 14.5 | 29.0 | 0.00 | 0.08 | 0.08 | 60 | 1005.7 |
| 20260504182648 | 13 | 280 | 32.2 | 38.6 | 0.00 | 0.08 | 0.08 | 59 | 1005.9 |
| 20260504182145 | 13 | 256 | 14.5 | 29.0 | 0.00 | 0.08 | 0.08 | 60 | 1005.6 |
| 20260504181643 | 12 | 284 | 22.5 | 25.7 | 0.00 | 0.08 | 0.08 | 62 | 1005.6 |
| 20260504181140 | 13 | 273 | 17.7 | 33.8 | 0.00 | 0.08 | 0.08 | 60 | 1005.7 |
| 20260504180640 | 12 | 247 | 14.5 | 27.4 | 0.00 | 0.08 | 0.08 | 64 | 1005.9 |
| 20260504180138 | 12 | 300 | 22.5 | 30.6 | 0.00 | 0.08 | 0.08 | 64 | 1005.9 |
| 20260504175635 | 12 | 312 | 14.5 | 29.0 | 0.00 | 0.08 | 0.08 | 65 | 1005.6 |
| 20260504175131 | 12 | 283 | 17.7 | 25.7 | 0.00 | 0.08 | 0.08 | 66 | 1005.7 |
| 20260504174630 | 12 | 250 | 9.7 | 20.9 | 0.00 | 0.08 | 0.08 | 66 | 1005.7 |
| 20260504174125 | 11 | 254 | 8.0 | 35.4 | 0.00 | 0.08 | 0.08 | 67 | 1005.7 |
| 20260504173623 | 11 | 250 | 4.8 | 20.9 | 0.00 | 0.08 | 0.08 | 68 | 1005.7 |
| 20260504173120 | 11 | 262 | 12.9 | 30.6 | 0.00 | 0.08 | 0.08 | 68 | 1005.9 |
| 20260504172616 | 11 | 252 | 19.3 | 30.6 | 0.00 | 0.08 | 0.08 | 69 | 1005.9 |
| 20260504172113 | 11 | 291 | 20.9 | 41.8 | 0.00 | 0.08 | 0.08 | 70 | 1005.8 |
| 20260504171609 | 10 | 275 | 16.1 | 35.4 | 0.00 | 0.08 | 0.08 | 71 | 1006.0 |
| 20260504171107 | 11 | 238 | 14.5 | 20.9 | 0.00 | 0.08 | 0.08 | 72 | 1006.1 |
| 20260504170602 | 10 | 267 | 9.7 | 17.7 | 0.00 | 0.08 | 0.08 | 76 | 1005.9 |
| 20260504150946 | 10 | 232 | 11.3 | 20.9 | 0.00 | 0.00 | 0.00 | 59 | 1005.2 |
| 20260504150443 | 10 | 262 | 6.4 | 12.9 | 0.00 | 0.00 | 0.00 | 58 | 1005.4 |
| 20260504140910 | 10 | 249 | 3.2 | 8.0 | 0.00 | 0.00 | 0.00 | 55 | 1006.0 |
| 20260504140406 | 10 | 149 | 4.8 | 9.7 | 0.00 | 0.00 | 0.00 | 56 | 1006.2 |
| 20260504130331 | 5 | 226 | 3.2 | 3.2 | 0.00 | 0.00 | 0.00 | 65 | 1007.1 |
| 20260504120254 | 5 | 55 | 0.0 | 3.2 | 0.00 | 0.00 | 0.00 | 64 | 1007.4 |
| 20260504110218 | 0 | 95 | 6.4 | 6.4 | 0.00 | 0.00 | 0.00 | 90 | 1007.3 |
| 20260504100142 | -2 | 94 | 4.8 | 6.4 | 0.00 | 0.00 | 0.00 | 92 | 1007.4 |
| 20260504090104 | -2 | 82 | 3.2 | 6.4 | 0.00 | 0.00 | 0.00 | 91 | 1006.9 |
| 20260504081535 | -2 | 95 | 4.8 | 6.4 | 0.00 | 0.00 | 0.00 | 90 | 1006.9 |
| 20260504081030 | -2 | 98 | 6.4 | 8.0 | 0.00 | 0.00 | 0.00 | 90 | 1006.7 |
| 20260504080527 | -2 | 84 | 1.6 | 8.0 | 0.00 | 0.00 | 0.00 | 90 | 1006.8 |
| 20260504050340 | -1 | 88 | 1.6 | 4.8 | 0.00 | 0.00 | 0.00 | 83 | 1006.6 |
| 20260504045837 | -1 | 102 | 4.8 | 6.4 | 0.00 | 0.00 | 0.00 | 83 | 1006.5 |
| 20260504045332 | -1 | 87 | 6.4 | 6.4 | 0.00 | 0.00 | 0.00 | 83 | 1006.5 |
| 20260504044829 | 0 | 105 | 3.2 | 4.8 | 0.00 | 0.00 | 0.00 | 82 | 1006.4 |
| 20260504044326 | 0 | 102 | 3.2 | 4.8 | 0.00 | 0.00 | 0.00 | 82 | 1006.6 |
| 20260504043824 | 0 | 97 | 3.2 | 4.8 | 0.00 | 0.00 | 0.00 | 81 | 1006.6 |
| 20260504043320 | 0 | 85 | 3.2 | 6.4 | 0.00 | 0.00 | 0.00 | 80 | 1006.7 |
| 20260504042818 | 0 | 91 | 3.2 | 4.8 | 0.00 | 0.00 | 0.00 | 80 | 1006.5 |
| 20260504042314 | 0 | 72 | 3.2 | 4.8 | 0.00 | 0.00 | 0.00 | 78 | 1006.8 |
| 20260504041810 | 0 | 101 | 3.2 | 4.8 | 0.00 | 0.00 | 0.00 | 77 | 1006.7 |
| 20260504041307 | 0 | 89 | 4.8 | 4.8 | 0.00 | 0.00 | 0.00 | 77 | 1006.6 |
| 20260504040803 | 0 | 150 | 0.0 | 4.8 | 0.00 | 0.00 | 0.00 | 76 | 1006.6 |
| 20260504040301 | 0 | 69 | 3.2 | 4.8 | 0.00 | 0.00 | 0.00 | 75 | 1006.7 |
| 20260504035756 | 0 | 71 | 1.6 | 4.8 | 0.00 | 0.03 | 0.03 | 76 | 1006.5 |
| 20260504035254 | 0 | 57 | 3.2 | 4.8 | 0.00 | 0.03 | 0.03 | 75 | 1006.6 |
| 20260504034751 | 0 | 81 | 3.2 | 4.8 | 0.00 | 0.03 | 0.03 | 76 | 1006.5 |
| 20260504034248 | 0 | 79 | 3.2 | 4.8 | 0.00 | 0.03 | 0.03 | 75 | 1006.3 |
| 20260504033746 | 1 | 76 | 3.2 | 6.4 | 0.00 | 0.03 | 0.03 | 75 | 1006.4 |
| 20260504033243 | 1 | 72 | 3.2 | 3.2 | 0.00 | 0.03 | 0.03 | 73 | 1006.2 |
| 20260504032740 | 1 | 82 | 1.6 | 4.8 | 0.00 | 0.03 | 0.03 | 71 | 1006.4 |
| 20260504032237 | 1 | 80 | 1.6 | 3.2 | 0.00 | 0.03 | 0.03 | 70 | 1006.4 |
| 20260504031733 | 2 | 83 | 3.2 | 4.8 | 0.00 | 0.03 | 0.03 | 69 | 1006.5 |
| 20260504031231 | 1 | 93 | 3.2 | 3.2 | 0.00 | 0.03 | 0.03 | 69 | 1006.5 |
| 20260504030726 | 1 | 97 | 1.6 | 3.2 | 0.00 | 0.03 | 0.03 | 70 | 1006.3 |
| 20260504030224 | 1 | 93 | 1.6 | 4.8 | 0.00 | 0.03 | 0.03 | 71 | 1006.4 |
| 20260504025720 | 1 | 100 | 3.2 | 4.8 | 0.00 | 0.03 | 0.03 | 72 | 1006.4 |
| 20260504025217 | 1 | 52 | 0.0 | 3.2 | 0.00 | 0.03 | 0.03 | 71 | 1006.6 |
| 20260504024714 | 2 | 97 | 3.2 | 3.2 | 0.00 | 0.03 | 0.03 | 70 | 1006.5 |
| 20260504024211 | 2 | 82 | 3.2 | 3.2 | 0.00 | 0.03 | 0.03 | 69 | 1006.4 |
| 20260504023708 | 2 | 77 | 3.2 | 4.8 | 0.00 | 0.03 | 0.03 | 67 | 1006.4 |
| 20260504023203 | 2 | 93 | 0.0 | 1.6 | 0.00 | 0.03 | 0.03 | 66 | 1006.5 |
| 20260504022700 | 2 | 81 | 3.2 | 3.2 | 0.00 | 0.03 | 0.03 | 65 | 1006.6 |
| 20260504022156 | 2 | 68 | 3.2 | 3.2 | 0.00 | 0.03 | 0.03 | 64 | 1006.6 |
| 20260504021654 | 2 | 94 | 3.2 | 3.2 | 0.00 | 0.03 | 0.03 | 63 | 1006.5 |
| 20260504021150 | 3 | 112 | 3.2 | 4.8 | 0.00 | 0.03 | 0.03 | 63 | 1006.5 |
| 20260504020648 | 3 | 103 | 1.6 | 4.8 | 0.00 | 0.03 | 0.03 | 63 | 1006.3 |
| 20260504020143 | 3 | 302 | 0.0 | 1.6 | 0.00 | 0.03 | 0.03 | 60 | 1006.6 |
| 20260504015641 | 4 | 73 | 1.6 | 4.8 | 0.00 | 0.03 | 0.03 | 60 | 1006.4 |
| 20260504015137 | 4 | 349 | 0.0 | 3.2 | 0.00 | 0.03 | 0.03 | 58 | 1006.5 |
| 20260504014632 | 4 | 308 | 3.2 | 3.2 | 0.00 | 0.03 | 0.03 | 58 | 1006.3 |
| 20260504014130 | 4 | 269 | 0.0 | 3.2 | 0.00 | 0.03 | 0.03 | 58 | 1006.7 |
| 20260504013627 | 5 | 49 | 0.0 | 3.2 | 0.00 | 0.03 | 0.03 | 57 | 1006.4 |
| 20260504013124 | 5 | 257 | 3.2 | 4.8 | 0.00 | 0.03 | 0.03 | 54 | 1006.5 |
| 20260504012621 | 5 | 311 | 6.4 | 14.5 | 0.00 | 0.03 | 0.03 | 53 | 1006.3 |
| 20260504012120 | 5 | 332 | 3.2 | 16.1 | 0.00 | 0.03 | 0.03 | 53 | 1006.3 |
| 20260504011616 | 5 | 309 | 4.8 | 14.5 | 0.00 | 0.03 | 0.03 | 53 | 1006.3 |
| 20260504011112 | 5 | 287 | 3.2 | 6.4 | 0.00 | 0.03 | 0.03 | 53 | 1006.4 |
| 20260504010608 | 5 | 291 | 3.2 | 4.8 | 0.00 | 0.03 | 0.03 | 53 | 1006.4 |
| 20260504010104 | 5 | 318 | 3.2 | 9.7 | 0.00 | 0.03 | 0.03 | 53 | 1006.4 |
| 20260504005601 | 5 | 325 | 11.3 | 11.3 | 0.00 | 0.03 | 0.03 | 52 | 1006.3 |
| 20260504005058 | 5 | 302 | 9.7 | 16.1 | 0.00 | 0.03 | 0.03 | 51 | 1006.3 |
| 20260504004556 | 5 | 11 | 3.2 | 11.3 | 0.00 | 0.03 | 0.03 | 52 | 1006.0 |
| 20260504004053 | 5 | 306 | 20.9 | 24.1 | 0.00 | 0.03 | 0.03 | 52 | 1006.1 |
| 20260504003549 | 5 | 343 | 3.2 | 9.7 | 0.00 | 0.03 | 0.03 | 52 | 1006.0 |
| 20260504003046 | 5 | 282 | 6.4 | 17.7 | 0.00 | 0.03 | 0.03 | 52 | 1006.1 |
| 20260504002543 | 5 | 300 | 6.4 | 11.3 | 0.00 | 0.03 | 0.03 | 52 | 1005.8 |
| 20260504002040 | 5 | 14 | 3.2 | 12.9 | 0.00 | 0.03 | 0.03 | 52 | 1006.0 |
| 20260504001538 | 6 | 269 | 11.3 | 16.1 | 0.00 | 0.03 | 0.03 | 50 | 1006.0 |
| 20260504001034 | 6 | 334 | 4.8 | 19.3 | 0.00 | 0.03 | 0.03 | 50 | 1005.9 |
| 20260504000531 | 6 | 306 | 8.0 | 16.1 | 0.00 | 0.03 | 0.03 | 50 | 1005.8 |
| 20260504000029 | 6 | 278 | 6.4 | 14.5 | 0.00 | 0.03 | 0.03 | 50 | 1005.7 |
| 20260503235527 | 6 | 318 | 6.4 | 16.1 | 0.00 | 0.03 | 0.03 | 49 | 1005.4 |
| 20260503235023 | 6 | 340 | 12.9 | 25.7 | 0.00 | 0.03 | 0.03 | 49 | 1005.3 |
| 20260503234521 | 6 | 309 | 11.3 | 20.9 | 0.00 | 0.03 | 0.03 | 49 | 1005.3 |
| 20260503234019 | 6 | 295 | 9.7 | 17.7 | 0.00 | 0.03 | 0.03 | 48 | 1005.4 |
| 20260503233515 | 6 | 319 | 11.3 | 14.5 | 0.00 | 0.03 | 0.03 | 47 | 1005.2 |
| 20260503233011 | 7 | 319 | 6.4 | 20.9 | 0.00 | 0.03 | 0.03 | 47 | 1005.2 |
| 20260503232508 | 7 | 140 | 3.2 | 22.5 | 0.00 | 0.03 | 0.03 | 47 | 1005.1 |
| 20260503232006 | 7 | 288 | 14.5 | 14.5 | 0.00 | 0.03 | 0.03 | 45 | 1005.1 |
| 20260503231504 | 7 | 52 | 3.2 | 14.5 | 0.00 | 0.03 | 0.03 | 46 | 1005.2 |
| 20260503231000 | 7 | 37 | 3.2 | 14.5 | 0.00 | 0.03 | 0.03 | 47 | 1005.3 |
| 20260503230456 | 7 | 62 | 0.0 | 20.9 | 0.00 | 0.03 | 0.03 | 45 | 1005.1 |
| 20260503225954 | 7 | 286 | 12.9 | 17.7 | 0.00 | 0.03 | 0.03 | 45 | 1005.1 |
| 20260503225451 | 7 | 1 | 8.0 | 16.1 | 0.00 | 0.03 | 0.03 | 46 | 1005.1 |
| 20260503224946 | 7 | 306 | 8.0 | 14.5 | 0.00 | 0.03 | 0.03 | 44 | 1005.3 |
| 20260503224443 | 7 | 319 | 6.4 | 29.0 | 0.00 | 0.03 | 0.03 | 44 | 1005.1 |
| 20260503223941 | 7 | 282 | 11.3 | 27.4 | 0.00 | 0.03 | 0.03 | 44 | 1004.9 |
| 20260503223439 | 7 | 19 | 9.7 | 25.7 | 0.00 | 0.03 | 0.03 | 45 | 1005.0 |
| 20260503222934 | 7 | 303 | 9.7 | 12.9 | 0.00 | 0.03 | 0.03 | 45 | 1005.0 |
| 20260503222433 | 7 | 295 | 8.0 | 9.7 | 0.00 | 0.03 | 0.03 | 44 | 1004.7 |
| 20260503221931 | 7 | 291 | 17.7 | 27.4 | 0.00 | 0.03 | 0.03 | 43 | 1004.8 |
| 20260503221429 | 7 | 213 | 3.2 | 22.5 | 0.00 | 0.03 | 0.03 | 43 | 1004.9 |
| 20260503220925 | 7 | 335 | 12.9 | 33.8 | 0.00 | 0.03 | 0.03 | 44 | 1004.9 |
| 20260503220421 | 7 | 304 | 16.1 | 24.1 | 0.00 | 0.03 | 0.03 | 42 | 1004.6 |
| 20260503215919 | 7 | 8 | 6.4 | 22.5 | 0.00 | 0.03 | 0.03 | 42 | 1004.7 |
| 20260503215416 | 7 | 229 | 1.6 | 20.9 | 0.00 | 0.03 | 0.03 | 42 | 1004.5 |
| 20260503214913 | 7 | 304 | 6.4 | 20.9 | 0.00 | 0.03 | 0.03 | 42 | 1004.6 |
| 20260503214410 | 8 | 330 | 22.5 | 33.8 | 0.00 | 0.03 | 0.03 | 41 | 1004.6 |
| 20260503213908 | 8 | 281 | 14.5 | 25.7 | 0.00 | 0.03 | 0.03 | 40 | 1004.5 |
| 20260503213406 | 9 | 304 | 20.9 | 33.8 | 0.00 | 0.03 | 0.03 | 39 | 1004.6 |
| 20260503212902 | 9 | 327 | 6.4 | 29.0 | 0.00 | 0.03 | 0.03 | 39 | 1004.6 |